www.pogodaiklimat.ru

Погода и климат >> Архив погоды >> Йемен >> Аден


ПОГОДА в Адене

  • Прогноз погоды в Адене
  • Монитор погоды в Адене

АРХИВ ПОГОДЫ в Адене

Время (UTC), дата Ветер
(напр.,м/с)
 
Видим.   Явления Облачность Т
(С)
Тd
(С)
f
(%)
Тe
(С)
Тes
(С)
Комфортность P
(гПа)
Po
(гПа)
Тmin
(С)
Tmax
(С)
R
(мм)
R24
(мм)
S
(см)
06 19.08 СЗ 3-4
{5}
6000 м мгла ясно +39.9 +9.7 16 +38 +49 очень
жарко
1004.2 1003.9 270
09 19.08 С 5-10
{10}
10 км ясно +43.1 +8.1 12 +41 +54 опасность
перегрева
1003.7 1003.4 410
15 19.08 В 2 10 км 6/3 600 м
[Cb cap Ac trans]
+30.2 +16.5 44 +34 +34 очень
душно
816.3
18 19.08 Ю 2-3
{8}
10 км ясно +35.5 +11.1 23 +35 +35 очень
жарко
1004.4 1004.1
21 19.08 Ю 2-2
{3}
10 км ясно +31.1 +10.2 28 +31 +31 жарко 1004.2 1003.9 +27.4 +45.3
00 20.08 З 3-3
{4}
8000 м мгла ясно +29.4 +9.2 28 +29 +29 жарко 1003.4 1003.1
03 20.08 З 50 40 км 4/0 1000 м
[Ac lent]
+16.2 +15.8 97 +12 +12 1001.3
06 20.08 штиль 0-2
{3}
40 км пыль 4/4 600 м
[]
+40.4 +9.1 15 +38 +48 очень
жарко
1005.2 1004.9 247
09 20.08 С 4 8000 м мгла ясно +44.1 +8.6 12 +42 +57 опасность
перегрева
1004.4 1004.1 399
12 20.08 В 2-7 10 км 4/0
[Ci fib]
+46.3 +4.7 8 1002.7 329
03 21.08 С 2 10 км ясно +15.5 +15.2 98 +16 +16 1001.3
06 21.08 З 2-3
{3}
6000 м мгла ясно +40.0 +9.9 16 +38 +51 опасность
солнечного
удара
1004.0 1003.7 256
09 21.08 С 3-6
{8}
7000 м мгла ясно +46.1 +7.4 10 +44 +64 опасность
перегрева
1002.8 1002.5 397
15 21.08 З 46 40 км 4/4 1000 м
[]
+29.1 +15.7 44 +32 +32 душно 815.3
18 21.08 Ю 2-2 10 км ясно +36.5 +8.8 19 +35 +35 очень
жарко
1001.8 1001.5
21 21.08 С 1 2000 м ясно +17.9 +15.3 85 +20 +20 815.5
00 22.08 С 7-9
{10}
10 км ясно +36.6 +10.6 21 +36 +36 очень
жарко
1001.4 1001.1
03 22.08 З 46 40 км 4/4 1000 м
[]
+16.5 +16.2 98 +7 +7 1001.3
06 22.08 С 5-6
{10}
10 км ясно +39.0 +11.9 20 +38 +45 очень
жарко
1003.0 1002.7 265
09 22.08 С 7-10
{11}
10 км ясно +44.7 +8.9 12 +43 +48 опасность
перегрева
1001.3 1001.0 405
12 22.08 С 8-10
{11}
10 км ясно +46.8 +5.6 9 +44 +47 опасность
перегрева
1000.0 999.7 329
15 22.08 Ю 2 10 км ясно +27.5 +16.6 51 +31 +31 душно 812.7
18 22.08 З 46 40 км 4/4 1000 м
[]
+20.1 +15.4 74 +17 +17 813.2 +27.5
03 23.08 З 46 40 км 4/4 1000 м
[]
+15.7 +15.4 98 +6 +6 1001.3
15 23.08 З 36 40 км 4/4 1000 м
[]
+26.5 +18.2 60 +31 +31 душно 813.9
18 23.08 З 31-5
{8}
40 км 4/0 600 м
[Ac trans]
+35.7 +15.4 30 +37 +37 душно 1002.0 1001.7
21 23.08 С 2 10 км ясно +17.6 +16.3 92 +18 +18 814.3
00 24.08 СЗ 5-6
{8}
10 км ясно +34.3 +11.5 25 +34 +34 очень
жарко
1001.5 1001.2
03 24.08 С 3-3
{7}
7000 м мгла 3/0
[Ac trans]
+32.0 +16.6 40 +35 +35 очень
душно
1003.2 1002.9 6
06 24.08 Ю 20-5
{7}
40 км мгла 4/4 600 м
[]
+37.0 +24.4 49 +49 +49 опасность
перегрева
1004.1 1003.8 241
09 24.08 ЮВ 5-8
{9}
5000 м мгла ясно +38.6 +25.9 49 +54 +65 опасность
перегрева
1003.1 1002.8 385
15 24.08 С 2 10 км гроза, ливневой дождь 10/10 600 м
[Cb cap]
+25.6 +18.8 66 +31 +31 очень
душно
815.1 3
18 24.08 Ю 3-3
{7}
10 км 3/0
[Ci fib]
+34.8 +23.2 51 +45 +45 опасность
перегрева
1003.5 1003.2
21 24.08 штиль 0 10 км {ливн. осадки} 10/10 600 м
[Cb cap]
+13.5 +13.1 97 +13 +13 816.0
03 25.08 Ю 3-4
{4}
800 м туман ясно +28.2 +26.3 89 +43 +43 опасность
перегрева
1003.7 1003.4 5
12 25.08 В 6-7
{8}
7000 м мгла 3/0
[Ci fib]
+44.8 +13.6 16 +45 +49 опасность
перегрева
1000.7 1000.4 308
21 25.08 С 1 10 км 4/0
[Ac lent]
+15.2 +14.9 98 +16 +16 817.3
00 26.08 штиль 0-2
{5}
40 км мгла 4/4 600 м
[]
+31.9 +10.9 28 +32 +32 жарко 1001.3 1001.0
03 26.08 С 2 10 км 3/0
[Ac lent]
+13.0 +12.4 96 +12 +12 1001.0

 

Местоположение метеостанции Аден (Йемен): широта 12.83 долгота 45.03 высота над уровнем моря 3 м.

В архиве по умолчанию представлена погода в Адене за последнюю неделю. Архивные данные за месяц целиком и за предыдущие месяцы, начиная с января 2011 года, Вы можете получить, выбрав интересующий диапазон дат из раскрывающегося списка и нажав кнопку "Ввод!".


*Определитесь, кто Вы:
робот инопланетянин человек

Внимание! Время в таблицах - всемирное. Для получения местного времени необходимо прибавить поправку, которая равна 3 ч.

Смотрите также архив погоды в соседних городах и на ближайших метеорологических станциях:

Погода в Таизе (Йемен) (136 км)
Погода в Дамаре (Йемен) (206 км)
Погода в Джибути () (249 км)
Погода в Марибе (Йемен) (291 км)
Погода в Ходейде (Йемен) (308 км)
Погода в Сане (Йемен) (313 км)
Погода в Хадже (Йемен) (368 км)
Погода в Харгейсе (Сомали) (385 км)
Погода в Босасо (Сомали) (483 км)
Погода в Рийяне (Йемен) (496 км)

Пояснения к столбцам:

Ветер - указаны скорость ветра в м/с - средняя за 10 мин, порывы в срок и между сроками (в фигурных скобках) и направление, откуда дует ветер: С - северный, СВ - северо-восточный, В - восточный, ЮВ - юго-восточный, Ю - южный, ЮЗ - юго-западный, З - западный, СЗ - северо-западный.
Видимость - горизонтальная дальность видимости в метрах или километрах. При видимости от 1 до 10 км при отсутствии осадков обычно наблюдается дымка, при ухудшении видимости до 1 км и менее - туман. В сухую погоду видимость может ухудшаться дымом, пылью или мглою.
Явления - указаны атмосферные явления, наблюдавшиеся в срок или в последний час перед сроком; фигурными скобками обозначены явления, наблюдавшиеся между сроками (за 1-3 часа до срока); квадратными скобками обозначены град или гололедные отложения с указанием их диаметра в мм.
Облачность - указаны через наклонную черту общая и нижняя облачность в баллах и высота нижней границы облаков в метрах; квадратными скобками обозначены формы облаков: Ci - перистые, Cs - перисто-слоистые, Cc - перисто-кучевые, Ac - высококучевые, As - высокослоистые, Sc - слоисто-кучевые, Ns - слоисто-дождевые, Cu - кучевые, Cb - кучево-дождевые. Подробнее классификацию облаков см. в Атласе облаков (PDF).
T - Температура воздуха - температура, измеренная на высоте 2 м над землей.
Td - Температура точки росы - температура, при понижении до которой содержащийся в воздухе водяной пар достигнет насыщения.
f - Относительная влажность воздуха - влажноcть воздуха, измеренная на высоте 2 м над землей.
Te - Эффективная температура - температура, которую ощущает одетый по сезону человек в тени. Характеристика душности погоды. При расчете учитывается влияние влажности воздуха и скорости ветра на теплоощущения человека.
Tes - Эффективная температура на солнце - температура, которую ощущает человек, с поправкой на солнечный нагрев. Характеристика знойности погоды. Зависит от высоты солнца над горизонтом, облачности и скорости ветра. Ночью, в пасмурную погоду, а также при ветре 12 м/с и более поправка равна нулю.
P - Атмосферное давление - приведенное к уровню моря атмосферное давление.
Po - Атмосферное давление - измеренное на уровне метеостанции атмосферное давление.
Tmin - Минимальная температура - минимум температуры воздуха на высоте 2 м над землей.
Tmax - Максимальная температура - максимум температуры воздуха на высоте 2 м над землей.
R - Количество осадков - Количество выпавших осадков за период времени, мм. При наведении курсора мыши на число - период времени, за который выпало указанное количество осадков.
R24 - Количество осадков - Количество выпавших осадков за 24 часа, мм.
S - Снежный покров - Высота снежного покрова, см. При наведении курсора мыши на число - состояние снежного покрова и степень покрытия местности в баллах.